CZ-3B R/B, 63663

Orbit data source: Space-Track

CZ-3B R/B, 63663 is space debris in HEO originally from a launch on Sun, 27 Apr 2025 UTC launched from the Xichang Space Center, China (XSC). Debris objects in space refer to the collection of defunct objects orbiting the Earth. Examples of debris include non-operational satellites, rocket bodies, and fragments generated from explosions, collisions, or faulty payload assembly.

Loading next visibility...
Identifier
63663, 2025-084B
Orbit
HEO
Last TLE update
3 days ago
Origin
Manufacturer
CALT
Mission
Spacecraft
Bus & Motor
CZ-3A STAGE 3, Unknown motor
Mass
~2,800 kg wet, ~2,800 kg dry
Launch date (UTC)
2025-04-27 (2 months ago)
Launch vehicle
Unknown
Launch site
Xichang Space Center, China (XSC)
Object type
Payload
Rocket body
Debris
Shape & HBR
Cyl + 1 Nozzle, 12.38 m
Radar Cross Section
32.704 m², Large (>1 m²)

Expand to show TLE details & history

TLE from 3 days ago
0 CZ-3B R/B
1 63663U 25084B   25186.78667521  .00057091  70454-6  28083-2 0  9998
2 63663  27.3840  64.4468 7184330 224.5389  48.1389  2.43951083  1662
Epoch: 2025-07-05T18:52Z
TLE epoch observation values (Epoch: 2025-07-05T18:52:48.738Z)
Latitude
0.00005°
Longitude
-142.71762°
Altitude
16,748.785 km
Speed
4.168 km/s
True Right ascension
04h 18m 01s
True Declination
0° 00' 00"
Sunlit
Object was in daylight at epoch
Visualization orbit readout
Latitude
24.01349°
Longitude
-85.05494°
Altitude
30,365.948 km
Speed
2.14 km/s
Apparent Right ascension
07h 59m 34s
Apparent Declination
15° 51' 26"
Sunlit
Object is in daylight
Visualization observer readout
Local Sidereal Time
18:56:27
Azimuth
341.967° N
Elevation
-32.321°
Doppler factor
1
Orbital elements
Apogee altitude
33,684.323 km
Perigee altitude
186.138 km
Semi-major axis
23,313.368 km
Eccentricity
0.71843
Inclination
27.384°
RAAN
64.4468°
Arg. of periapsis
224.5389°
True anomaly
Unknown
Mean anomaly
48.1389°
Eccentric anomaly
Unknown
Mean motion
0.60973 °/min
Orbital period
590.43 mins
BSTAR
0.0028083
Loading maneuver chart data...
Loading SW <> Apogee altitude chart data...
Loading historical data...
Loading historical data...
Loading historical data...
Loading historical data...
Loading historical data...
Loading historical data...
Loading historical data...
Other satellites on launch #84 in the year 2025 (2025-04-27 UTC)

CZ-3B R/B Visibility forecast

Observer location: undefined°, undefined°

Span
Click to sort rows by Start time (UTC) header in descending order
Start Az.
Max El. time (UTC)
Max El. Az.
Max El.
End time (UTC)
End Az.
380 mins2025-07-09 12:45:03.625Z92.03° ESE2025-07-09 17:25:03.625Z94.114° ESE32.12°2025-07-09 19:05:03.625Z82.642° E
|